Voltar ao catálogo

CZ-12 R/B

AtivoLEO
NORAD 66421·ROCKET BODY·🇨🇳 China

Lançado Nov 10, 2025 de Wenchang Space Launch Site

Loading…

Próximas Passagens (próximas 24 horas)

TLE

AtualizadoSource: Space-Track

Época: Sep 14, 2026, 22:40 UTC

1 66421U 25258K   26257.94507745 -.00000017  00000-0  45145-4 0  9996
2 66421  49.9948 139.2517 0064357 162.4346 197.8821 14.42437397 44584

Acompanhe CZ-12 R/B em tempo real com AllMySat

Download on the App Store